1497290400.86,38706,22.25,73978.8,6.89,2.51,4.15,0,*76
1497290402.07,38707,22.25,73978.3,6.89,2.59,4.15,0,*7F
1497290403.27,38708,22.25,73978.0,6.89,2.69,4.15,0,*73
1497290404.47,38709,22.25,73978.3,6.89,2.69,4.15,0,*72
1497290405.67,38710,22.25,73978.3,6.89,2.81,4.15,0,*7C
1497290406.88,38711,22.25,73978.8,6.89,2.81,4.15,0,*7D
1497290408.1,38712,22.25,73978.5,6.91,2.85,4.19,0,*7F
1497290409.28,38713,22.25,73982.0,6.89,2.91,4.15,0,*7E
1497290410.46,38714,22.31,73982.3,6.89,2.95,4.23,0,*78
1497290411.66,38715,22.31,73982.8,6.91,2.99,4.19,0,*75
1497290412.84,38716,22.25,73978.0,6.89,2.95,4.15,0,*7F
1497290414.09,38717,22.25,73980.3,6.91,3.19,4.31,0,*74
1497290415.29,38718,22.25,73978.8,6.89,3.19,4.27,0,*75
1497290416.55,38719,22.25,73978.3,6.91,3.23,4.31,0,*73
1497290417.78,38720,22.25,73978.0,6.91,3.19,4.19,0,*7A
1497290418.99,38721,22.25,73978.3,6.89,3.15,4.23,0,*77
1497290420.2,38722,22.25,73976.5,6.89,3.07,4.11,0,*76
1497290421.42,38723,22.25,73978.3,6.91,3.19,4.15,0,*75
1497290422.65,38724,22.25,73974.3,6.91,3.19,4.15,0,*72
1497290423.83,38725,22.25,73976.8,6.89,3.29,4.23,0,*7C
1497290425.03,38726,22.25,73972.5,6.89,3.33,4.23,0,*74
1497290426.24,38727,22.25,73976.8,6.89,3.41,4.27,0,*74
1497290427.44,38728,22.25,73974.3,6.89,3.45,4.27,0,*7F
1497290428.64,38729,22.25,73976.3,6.89,3.45,4.27,0,*7E
1497290429.87,38730,22.25,73978.3,6.91,3.55,4.31,0,*79
1497290431.06,38731,22.25,73976.5,6.89,3.53,4.27,0,*70
1497290432.3,38732,22.25,73978.5,6.91,3.71,4.37,0,*7B
1497290433.52,38733,22.25,73978.8,6.89,3.67,4.33,0,*70
1497290434.73,38734,22.25,73976.8,6.89,3.79,4.33,0,*78
1497290435.94,38735,22.25,73976.3,6.91,3.81,4.37,0,*73
1497290437.12,38736,22.25,73978.0,6.89,3.93,4.33,0,*7E
1497290438.37,38737,22.25,73978.3,6.91,4.05,4.41,0,*7B
1497290439.61,38738,22.31,73978.8,6.91,4.05,4.41,0,*74
1497290440.81,38739,22.25,73978.8,6.91,4.07,4.49,0,*7F
1497290442.03,38740,22.25,73976.5,6.91,4.15,4.41,0,*7A
1497290443.24,38741,22.25,73978.8,6.91,4.15,4.41,0,*7B
1497290444.45,38742,22.25,73980.0,6.91,4.15,4.41,0,*78
1497290445.64,38743,22.31,73980.3,6.89,4.15,4.37,0,*71
1497290446.85,38744,22.25,73978.8,6.91,4.19,4.41,0,*72
1497290448.06,38745,22.25,73976.5,6.91,4.27,4.49,0,*76
1497290449.27,38746,22.25,73980.0,6.91,4.27,4.49,0,*75
1497290450.5,38747,22.25,73982.5,6.91,4.31,4.53,0,*78
1497290451.68,38748,22.25,73978.3,6.93,4.37,4.49,0,*78
1497290452.87,38749,22.25,73980.5,6.93,4.37,4.41,0,*71
1497290454.07,38750,22.25,73978.5,6.91,4.41,4.49,0,*72
1497290455.24,38751,22.25,73980.0,6.93,4.49,4.53,0,*72
1497290456.42,38752,22.25,73978.3,6.89,4.37,4.49,0,*78
1497290457.6,38753,22.25,73980.0,6.93,4.49,4.53,0,*70
1497290458.77,38754,22.31,73982.3,6.93,4.41,4.53,0,*7F
1497290459.94,38755,22.25,73982.3,6.93,4.49,4.53,0,*76
1497290461.15,38756,22.25,73982.3,6.91,4.49,4.53,0,*77
1497290462.36,38757,22.25,73982.0,6.91,4.37,4.41,0,*7C
1497290463.58,38758,22.25,73980.3,6.91,4.37,4.41,0,*73
1497290464.79,38759,22.31,73984.3,6.91,4.37,4.41,0,*72
1497290466.01,38760,22.31,73984.3,6.91,4.37,4.41,0,*78
1497290467.22,38761,22.25,73980.0,6.91,4.37,4.49,0,*71
1497290468.43,38762,22.25,73982.8,6.91,4.41,4.53,0,*78
1497290469.63,38763,22.25,73980.3,6.91,4.49,4.53,0,*71
1497290470.81,38764,22.25,73982.5,6.89,4.49,4.53,0,*7F
1497290471.98,38765,22.25,73984.0,6.93,4.41,4.53,0,*7D
1497290473.19,38766,22.25,73984.3,6.91,4.37,4.49,0,*76
1497290474.4,38767,22.25,73982.0,6.91,4.37,4.49,0,*77
1497290475.6,38768,22.25,73984.8,6.91,4.41,4.49,0,*79
1497290476.81,38769,22.25,73980.8,6.91,4.49,4.53,0,*7B
1497290478.01,38770,22.25,73982.3,6.91,4.49,4.49,0,*78
1497290479.21,38771,22.25,73984.5,6.91,4.37,4.49,0,*70
1497290480.43,38772,22.31,73986.0,6.91,4.37,4.53,0,*78
1497290481.63,38773,22.25,73980.3,6.91,4.41,4.53,0,*78
1497290482.84,38774,22.25,73982.0,6.91,4.37,4.49,0,*75
1497290484.05,38775,22.25,73982.3,6.91,4.49,4.53,0,*76
1497290485.25,38776,22.25,73982.8,6.91,4.49,4.53,0,*75
1497290486.48,38777,22.25,73982.5,6.91,4.41,4.59,0,*76
1497290487.69,38778,22.25,73982.3,6.91,4.41,4.53,0,*73
1497290488.89,38779,22.25,73982.8,6.91,4.41,4.53,0,*72
1497290490.12,38780,22.25,73984.5,6.91,4.49,4.59,0,*76
1497290491.35,38781,22.25,73982.8,6.91,4.49,4.59,0,*77
1497290492.54,38782,22.25,73984.0,6.93,4.49,4.63,0,*7F
1497290493.72,38783,22.25,73982.3,6.93,4.49,4.53,0,*7D
1497290494.92,38784,22.25,73986.3,6.91,4.49,4.53,0,*78
1497290496.13,38785,22.25,73984.8,6.91,4.41,4.53,0,*71
1497290497.33,38786,22.25,73986.0,6.91,4.41,4.53,0,*72
1497290498.56,38787,22.25,73982.5,6.91,4.41,4.59,0,*79
1497290499.77,38788,22.25,73984.8,6.91,4.49,4.53,0,*74
1497290501.0,38789,22.25,73986.5,6.91,4.53,4.63,0,*7D
1497290502.24,38790,22.25,73984.8,6.91,4.53,4.63,0,*75
1497290503.47,38791,22.25,73988.3,6.91,4.53,4.59,0,*7D
1497290504.7,38792,22.25,73986.3,6.91,4.53,4.59,0,*7E
1497290505.91,38793,22.25,73984.5,6.93,4.53,4.59,0,*7D
1497290507.14,38794,22.31,73986.8,6.93,4.59,4.71,0,*7A
1497290508.35,38795,22.25,73986.3,6.93,4.53,4.63,0,*72
1497290509.55,38796,22.25,73986.3,6.93,4.53,4.59,0,*78
1497290510.75,38797,22.25,73984.3,6.93,4.53,4.59,0,*79
1497290511.99,38798,22.25,73984.8,6.93,4.59,4.71,0,*76
1497290513.22,38799,22.25,73988.3,6.93,4.63,4.71,0,*7E
1497290514.45,38800,22.25,73986.8,6.93,4.63,4.63,0,*72
1497290515.68,38801,22.25,73984.8,6.93,4.63,4.75,0,*74
1497290516.94,38802,22.25,73984.3,6.91,4.63,4.71,0,*71
1497290518.21,38803,22.25,73988.0,6.91,4.63,4.71,0,*70
1497290519.39,38804,22.25,73986.0,6.93,4.37,4.49,0,*7F
1497290520.57,38805,22.25,73986.3,6.93,4.37,4.41,0,*76
1497290521.78,38806,22.25,73986.8,6.95,4.53,4.57,0,*76
1497290523.01,38807,22.25,73990.0,6.93,4.59,4.63,0,*7C
1497290524.21,38808,22.25,73988.3,6.93,4.53,4.63,0,*79
1497290525.41,38809,22.25,73990.3,6.93,4.49,4.59,0,*7A
1497290526.61,38810,22.25,73986.0,6.93,4.53,4.59,0,*79
1497290527.82,38811,22.25,73990.8,6.93,4.53,4.63,0,*71
1497290529.05,38812,22.25,73990.5,6.93,4.59,4.63,0,*78
1497290530.28,38813,22.25,73990.3,6.93,4.63,4.71,0,*73
1497290531.51,38814,22.25,73988.5,6.95,4.57,4.63,0,*76
1497290532.71,38815,22.25,73990.5,6.93,4.53,4.59,0,*7C
1497290533.96,38816,22.25,73988.5,6.95,4.63,4.63,0,*73
1497290535.19,38817,22.25,73990.0,6.93,4.63,4.59,0,*7D
1497290536.42,38818,22.25,73990.3,6.93,4.59,4.71,0,*71
1497290537.66,38819,22.25,73992.0,6.93,4.63,4.71,0,*79
1497290538.93,38820,22.25,73988.3,6.91,4.71,4.75,0,*76
1497290540.19,38821,22.25,73992.3,6.91,4.63,4.79,0,*78
1497290541.41,38822,22.25,73988.5,6.93,4.63,4.79,0,*79
1497290542.65,38823,22.25,73994.3,6.93,4.71,4.75,0,*77
1497290543.88,38824,22.25,73988.8,6.93,4.79,4.75,0,*78
1497290545.11,38825,22.25,73992.5,6.93,4.79,4.79,0,*75
1497290546.34,38826,22.25,73992.0,6.93,4.75,4.75,0,*76
1497290547.57,38827,22.25,73990.8,6.93,4.75,4.79,0,*7B
1497290548.8,38828,22.25,73988.5,6.93,4.79,4.79,0,*78
1497290550.04,38829,22.25,73988.5,6.93,4.71,4.71,0,*79
1497290551.29,38830,22.25,73990.8,6.95,4.67,4.67,0,*77
1497290552.52,38831,22.25,73990.8,6.93,4.59,4.59,0,*70
1497290553.74,38832,22.25,73990.5,6.93,4.63,4.59,0,*7A
1497290554.98,38833,22.25,73990.3,6.93,4.71,4.59,0,*78
1497290556.2,38834,22.25,73990.3,6.93,4.59,4.59,0,*75
1497290557.46,38835,22.25,73990.0,6.95,4.67,4.63,0,*76
1497290558.66,38836,22.25,73990.0,6.93,4.63,4.53,0,*74
1497290559.86,38837,22.25,73988.0,6.93,4.63,4.53,0,*75
1497290561.07,38838,22.25,73986.8,6.93,4.71,4.53,0,*79
1497290562.3,38839,22.25,73988.0,6.95,4.75,4.57,0,*7E
1497290563.5,38840,22.31,73988.5,6.93,4.63,4.49,0,*7E
1497290564.72,38841,22.25,73982.3,6.95,4.75,4.53,0,*75
1497290565.95,38842,22.25,73984.0,6.95,4.67,4.45,0,*72
1497290567.16,38843,22.25,73984.5,6.93,4.71,4.41,0,*76
1497290568.37,38844,22.25,73984.0,6.93,4.71,4.41,0,*71
1497290569.6,38845,22.25,73986.0,6.95,4.75,4.41,0,*72
1497290570.81,38846,22.25,73986.0,6.93,4.71,4.37,0,*72
1497290572.04,38847,22.25,73984.3,6.95,4.75,4.33,0,*75
1497290573.27,38848,22.25,73986.0,6.95,4.75,4.33,0,*7A
1497290574.52,38849,22.25,73984.8,6.95,4.63,4.31,0,*7E
1497290575.69,38850,22.25,73984.3,6.93,4.53,4.19,0,*79
1497290576.86,38851,22.25,73982.8,6.93,4.49,4.19,0,*73
1497290578.06,38852,22.25,73982.5,6.95,4.53,4.23,0,*74
1497290579.26,38853,22.25,73982.5,6.95,4.33,4.11,0,*72
1497290580.46,38854,22.25,73980.0,6.95,4.23,4.07,0,*73
1497290581.69,38855,22.25,73982.3,6.95,4.31,4.07,0,*71
1497290582.89,38856,22.25,73978.0,6.95,4.23,4.11,0,*76
1497290584.06,38857,22.25,73976.5,6.93,4.19,4.07,0,*7F
1497290585.24,38858,22.25,73978.3,6.93,4.19,4.07,0,*70
1497290586.43,38859,22.25,73980.0,6.95,4.19,4.19,0,*78
1497290587.64,38860,22.25,73982.5,6.93,4.05,4.07,0,*76
1497290588.81,38861,22.25,73982.3,6.93,3.85,3.85,0,*75
1497290590.02,38862,22.25,73980.5,6.93,3.75,3.81,0,*7D
1497290591.25,38863,22.25,73978.5,6.95,3.85,3.97,0,*72
1497290592.45,38864,22.25,73978.5,6.95,3.59,3.81,0,*73
1497290593.65,38865,22.25,73978.8,6.95,3.63,3.81,0,*7B
1497290594.83,38866,22.25,73978.3,6.93,3.59,3.89,0,*7F
1497290596.0,38867,22.25,73980.0,6.93,3.59,3.93,0,*75
1497290597.18,38868,22.25,73978.0,6.93,3.55,3.93,0,*76
1497290598.4,38869,22.25,73978.5,6.95,3.49,3.85,0,*7B
1497290599.6,38870,22.25,73978.3,6.93,3.49,3.81,0,*71
1497290600.81,38871,22.25,73976.3,6.95,3.53,3.85,0,*79
1497290602.02,38872,22.25,73978.8,6.93,3.45,3.89,0,*77
1497290603.19,38873,22.25,73978.0,6.93,3.59,4.07,0,*7A
1497290604.4,38874,22.25,73976.8,6.93,3.67,4.15,0,*73
1497290605.6,38875,22.25,73978.3,6.93,3.79,4.15,0,*7D
1497290606.8,38876,22.25,73974.0,6.95,3.81,4.19,0,*73
1497290607.97,38877,22.25,73974.0,6.93,3.81,4.15,0,*78
1497290609.17,38878,22.25,73974.3,6.95,3.81,4.11,0,*75
1497290610.37,38879,22.25,73970.8,6.93,3.79,4.15,0,*71
1497290611.56,38880,22.25,73972.0,6.95,3.81,4.19,0,*7A
1497290612.8,38881,22.25,73974.0,6.95,3.75,4.07,0,*7F
1497290613.98,38882,22.25,73972.5,6.93,3.59,3.93,0,*7E
1497290615.15,38883,22.25,73978.0,6.93,3.59,3.93,0,*7F
1497290616.38,38884,22.25,73974.8,6.95,3.75,4.07,0,*7A
1497290617.61,38885,22.25,73974.8,6.93,3.71,4.05,0,*7B
1497290618.84,38886,22.25,73974.5,6.95,3.71,3.93,0,*76
1497290620.08,38887,22.25,73970.0,6.93,3.75,4.05,0,*7D
1497290621.33,38888,22.25,73972.3,6.95,3.75,3.97,0,*78
1497290622.54,38889,22.25,73974.8,6.93,3.79,3.93,0,*77
1497290623.74,38890,22.25,73976.5,6.93,3.79,3.93,0,*7F
1497290624.95,38891,22.25,73974.0,6.95,3.81,4.07,0,*75
1497290626.15,38892,22.25,73976.0,6.93,3.79,4.07,0,*77
1497290627.36,38893,22.25,73968.8,6.93,3.79,3.93,0,*7C
1497290628.59,38894,22.25,73974.8,6.93,3.71,4.05,0,*7B
1497290629.79,38895,22.25,73976.5,6.95,3.81,4.07,0,*71
1497290630.97,38896,22.25,73976.0,6.93,3.85,4.07,0,*70
1497290632.16,38897,22.25,73976.5,6.95,3.85,4.11,0,*70
1497290633.36,38898,22.25,73976.3,6.95,3.85,4.11,0,*7F
1497290634.56,38899,22.25,73974.0,6.95,3.93,4.19,0,*71
1497290635.76,38900,22.25,73978.0,6.95,3.93,4.19,0,*70
1497290636.96,38901,22.25,73976.5,6.95,3.93,4.19,0,*71
1497290638.15,38902,22.25,73978.5,6.95,3.93,4.19,0,*72
1497290639.38,38903,22.25,73982.3,6.95,3.97,4.23,0,*7E
1497290640.6,38904,22.25,73980.0,6.95,3.97,4.23,0,*79
1497290641.8,38905,22.25,73982.0,6.95,3.93,4.23,0,*7C
1497290642.97,38906,22.25,73976.8,6.93,3.93,4.19,0,*70
1497290644.22,38907,22.25,73982.8,6.95,4.01,4.31,0,*71
1497290645.42,38908,22.25,73982.5,6.97,4.01,4.23,0,*7F
1497290646.64,38909,22.25,73980.3,6.95,3.97,4.23,0,*74
1497290647.89,38910,22.25,73984.3,6.95,3.97,4.31,0,*7F
1497290649.14,38911,22.25,73982.5,6.95,4.01,4.31,0,*76
1497290650.37,38912,22.25,73984.5,6.95,4.07,4.31,0,*73
1497290651.58,38913,22.25,73980.8,6.95,4.07,4.41,0,*75
1497290652.76,38914,22.25,73984.8,6.97,4.11,4.33,0,*72
1497290653.97,38915,22.25,73984.3,6.95,4.19,4.41,0,*7C
1497290655.15,38916,22.25,73988.3,6.97,4.11,4.41,0,*75
1497290656.33,38917,22.25,73986.0,6.97,4.11,4.33,0,*71
1497290657.54,38918,22.25,73984.3,6.99,4.15,4.37,0,*70
1497290658.74,38919,22.25,73988.5,7.03,4.19,4.49,0,*76
1497290659.92,38920,22.25,73988.3,6.97,4.07,4.33,0,*72
1497290661.13,38921,22.25,73986.8,6.99,4.11,4.37,0,*7E
1497290662.31,38922,22.25,73990.8,6.97,4.11,4.33,0,*77
1497290663.52,38923,22.25,73984.5,6.99,4.23,4.33,0,*79
1497290664.73,38924,22.25,73986.3,6.99,4.15,4.37,0,*7F
1497290665.93,38925,22.25,73984.3,6.97,4.19,4.31,0,*7A
1497290667.13,38926,22.25,73984.5,6.97,4.11,4.31,0,*71
1497290668.34,38927,22.25,73982.3,6.95,4.11,4.23,0,*71
1497290669.55,38928,22.25,73980.5,6.95,4.01,4.19,0,*76
1497290670.77,38929,22.25,73982.3,6.95,4.01,4.19,0,*77
1497290671.97,38930,22.25,73980.3,6.93,4.05,4.15,0,*71
1497290673.17,38931,22.25,73974.8,6.95,4.11,4.19,0,*7F
1497290674.35,38932,22.25,73976.5,6.93,4.07,4.07,0,*72
1497290675.55,38933,22.25,73976.8,6.95,4.19,4.19,0,*75
1497290676.73,38934,22.25,73974.0,6.93,4.07,4.15,0,*77
1497290677.91,38935,22.25,73964.8,6.93,4.15,4.07,0,*76
1497290679.1,38936,22.25,73964.0,6.95,4.19,4.19,0,*70
1497290680.28,38937,22.25,73968.0,6.93,4.15,4.15,0,*77
1497290681.45,38938,22.25,73966.8,6.93,4.19,4.15,0,*74
1497290682.68,38939,22.25,73964.5,6.95,4.23,4.31,0,*7C
1497290683.88,38940,22.25,73958.5,6.95,4.23,4.19,0,*78
1497290685.07,38941,22.25,73960.8,6.95,4.19,4.11,0,*78
1497290686.27,38942,22.25,73962.8,6.95,4.19,4.19,0,*73
1497290687.44,38943,22.25,73962.8,6.93,4.19,4.15,0,*78
1497290688.63,38944,22.25,73962.5,6.95,4.19,4.11,0,*7D
1497290689.83,38945,22.25,73962.0,6.95,4.19,4.11,0,*7C
1497290691.01,38946,22.25,73958.3,6.93,4.07,4.15,0,*72
1497290692.23,38947,22.25,73960.5,6.95,4.19,3.97,0,*77
1497290693.43,38948,22.25,73964.3,6.95,4.11,4.11,0,*79
1497290694.63,38949,22.25,73958.3,6.95,4.11,4.07,0,*7F
1497290695.83,38950,22.25,73958.0,6.95,4.11,4.19,0,*78
1497290697.01,38951,22.25,73958.0,6.93,4.15,4.07,0,*74
1497290698.19,38952,22.25,73960.8,6.93,4.15,4.15,0,*74
1497290699.37,38953,22.25,73964.8,6.93,4.15,4.07,0,*76
1497290700.57,38954,22.25,73962.5,6.95,4.11,4.07,0,*73
1497290701.8,38955,22.25,73962.5,6.93,3.97,4.05,0,*7F
1497290702.98,38956,22.25,73962.0,6.93,3.93,3.93,0,*70
1497290704.21,38957,22.25,73966.3,6.93,3.97,4.05,0,*7D
1497290705.4,38958,22.25,73970.3,6.95,4.19,4.19,0,*78
1497290706.6,38959,22.25,73974.8,6.95,4.11,4.19,0,*71
1497290707.82,38960,22.25,73970.5,6.93,3.97,4.05,0,*79
1497290709.08,38961,22.25,73968.3,6.91,3.97,4.05,0,*7A
1497290710.34,38962,22.25,73968.3,6.91,3.97,4.05,0,*79
1497290711.54,38963,22.25,73970.5,6.91,4.07,4.15,0,*77
1497290712.73,38964,22.25,73970.0,6.89,4.07,4.07,0,*7A
1497290713.97,38965,22.25,73970.8,6.91,4.05,4.07,0,*70
1497290715.2,38966,22.25,73964.8,6.91,3.97,4.07,0,*7F
1497290716.4,38967,22.25,73970.8,6.93,4.05,4.15,0,*73
1497290717.61,38968,22.25,73970.0,6.93,3.93,4.05,0,*75
1497290718.82,38969,22.25,73968.5,6.93,3.89,4.05,0,*7F
1497290720.02,38970,22.25,73966.8,6.93,3.93,4.05,0,*7C
1497290721.25,38971,22.25,73966.5,6.91,4.05,4.15,0,*76
1497290722.46,38972,22.25,73962.0,6.91,4.07,4.15,0,*77
1497290723.64,38973,22.25,73960.3,6.89,4.11,4.15,0,*78
1497290724.85,38974,22.25,73958.5,6.91,4.15,4.19,0,*7E
1497290726.02,38975,22.25,73962.5,6.93,4.15,4.19,0,*7D
1497290727.2,38976,22.25,73962.8,6.93,4.15,4.19,0,*7E
1497290728.37,38977,22.25,73962.8,6.93,4.07,4.19,0,*7C
1497290729.54,38978,22.25,73970.5,6.93,4.07,4.19,0,*73
1497290730.72,38979,22.25,73968.3,6.93,4.07,4.19,0,*72
1497290731.89,38980,22.25,73968.8,6.93,4.15,4.19,0,*77
1497290733.1,38981,22.25,73966.3,6.93,4.15,4.31,0,*7C
1497290734.3,38982,22.25,73968.8,6.93,4.19,4.31,0,*73
1497290735.53,38983,22.25,73974.0,6.95,4.23,4.31,0,*7D
1497290736.7,38984,22.25,73964.5,6.93,4.19,4.27,0,*72
1497290737.91,38985,22.25,73970.5,6.91,4.15,4.27,0,*7D
1497290739.14,38986,22.25,73964.3,6.91,4.19,4.31,0,*75
1497290740.35,38987,22.25,73970.3,6.91,4.19,4.37,0,*72
1497290741.56,38988,22.25,73970.5,6.91,4.19,4.37,0,*7D
1497290742.79,38989,22.25,73966.8,6.91,4.19,4.31,0,*7A
1497290744.03,38990,22.25,73970.0,6.91,4.19,4.31,0,*72
1497290745.24,38991,22.25,73970.5,6.91,4.27,4.37,0,*78
1497290746.48,38992,22.25,73968.8,6.91,4.19,4.31,0,*70
1497290747.66,38993,22.25,73966.8,6.93,4.27,4.37,0,*78
1497290748.84,38994,22.25,73968.8,6.93,4.27,4.41,0,*7E
1497290750.04,38995,22.25,73972.0,6.93,4.31,4.49,0,*70
1497290751.23,38996,22.25,73970.5,6.93,4.37,4.53,0,*7E
1497290752.4,38997,22.25,73970.3,6.93,4.37,4.49,0,*74
1497290753.59,38998,22.25,73972.3,6.93,4.37,4.53,0,*70
1497290754.76,38999,22.25,73968.3,6.93,4.41,4.53,0,*70
1497290755.94,39000,22.25,73970.3,6.93,4.41,4.53,0,*78
1497290757.14,39001,22.25,73972.0,6.95,4.33,4.57,0,*7E
1497290758.34,39002,22.25,73970.0,6.93,4.41,4.59,0,*70
1497290759.55,39003,22.25,73968.0,6.95,4.41,4.57,0,*79
1497290760.75,39004,22.25,73968.5,6.95,4.41,4.53,0,*7A
1497290761.95,39005,22.25,73972.5,6.95,4.45,4.57,0,*7B
1497290763.15,39006,22.25,73972.8,6.95,4.41,4.57,0,*7C
1497290764.35,39007,22.25,73974.3,6.95,4.45,4.53,0,*7D
1497290765.55,39008,22.25,73974.5,6.95,4.41,4.53,0,*76
1497290766.73,39009,22.25,73974.8,6.93,4.37,4.49,0,*7B
1497290767.91,39010,22.25,73974.5,6.93,4.37,4.53,0,*78
1497290769.09,39011,22.25,73978.8,6.93,4.41,4.45,0,*7F
1497290770.26,39012,22.25,73976.3,6.93,4.41,4.45,0,*7C
1497290771.45,39013,22.25,73974.8,6.93,4.37,4.41,0,*78
1497290772.68,39014,22.25,73976.3,6.95,4.31,4.53,0,*7C
1497290773.88,39015,22.25,73976.3,6.95,4.41,4.53,0,*7A
1497290775.08,39016,22.25,73976.5,6.95,4.41,4.41,0,*7A
1497290776.29,39017,22.25,73974.5,6.93,4.31,4.37,0,*7B
1497290777.49,39018,22.25,73976.5,6.95,4.45,4.57,0,*77
1497290778.66,39019,22.25,73976.5,6.93,4.49,4.49,0,*73
1497290779.83,39020,22.25,73972.8,6.93,4.49,4.49,0,*79
1497290781.0,39021,22.25,73972.3,6.93,4.49,4.53,0,*73
1497290782.21,39022,22.25,73974.5,6.95,4.53,4.57,0,*79
1497290783.44,39023,22.25,73978.0,6.95,4.53,4.63,0,*7F
1497290784.66,39024,22.25,73974.5,6.95,4.57,4.63,0,*7C
1497290785.86,39025,22.25,73976.3,6.95,4.45,4.53,0,*7D
1497290787.04,39026,22.25,73978.3,6.93,4.49,4.53,0,*74
1497290788.27,39027,22.25,73978.8,6.95,4.53,4.63,0,*7B
1497290789.47,39028,22.25,73978.8,6.95,4.57,4.57,0,*77
1497290790.65,39029,22.25,73980.5,6.93,4.53,4.53,0,*70
1497290791.82,39030,22.25,73982.0,6.93,4.49,4.53,0,*73
1497290793.02,39031,22.25,73982.5,6.95,4.57,4.53,0,*7B
1497290794.22,39032,22.25,73980.0,6.95,4.57,4.53,0,*78
1497290795.43,39033,22.25,73982.3,6.95,4.33,4.37,0,*79
1497290796.6,39034,22.25,73984.8,6.93,4.27,4.23,0,*78
1497290797.8,39035,22.25,73986.0,6.93,4.31,4.19,0,*77
1497290798.98,39036,22.25,73984.5,6.93,4.19,4.15,0,*72
1497290800.15,39037,22.25,73986.8,6.93,4.27,4.15,0,*7E
1497290801.33,39038,22.25,73986.3,6.93,4.19,4.15,0,*7C
1497290802.5,39039,22.25,73984.8,6.93,4.23,4.19,0,*78
1497290803.67,39040,22.25,73984.3,6.93,4.27,4.15,0,*7E
1497290804.85,39041,22.25,73982.5,6.93,4.19,4.15,0,*72
1497290806.03,39042,22.25,73980.8,6.93,4.27,4.07,0,*7F
1497290807.2,39043,22.25,73982.5,6.93,4.27,4.15,0,*7D
1497290808.38,39044,22.25,73984.8,6.93,4.19,4.07,0,*74
1497290809.59,39045,22.25,73976.5,6.91,4.19,4.15,0,*74
1497290810.79,39046,22.25,73978.3,6.91,4.19,4.15,0,*77
1497290811.99,39047,22.25,73978.3,6.91,4.19,4.15,0,*76
1497290813.2,39048,22.25,73978.3,6.91,4.19,4.15,0,*79
1497290814.41,39049,22.25,73976.5,6.91,4.19,4.07,0,*7B
1497290815.61,39050,22.25,73976.0,6.91,4.27,4.15,0,*7D
1497290816.82,39051,22.25,73976.0,6.91,4.27,4.15,0,*7C
1497290818.03,39052,22.25,73974.5,6.91,4.37,4.19,0,*72
1497290819.23,39053,22.25,73976.5,6.91,4.37,4.19,0,*73
1497290820.46,39054,22.25,73978.5,6.91,4.31,4.27,0,*7F
1497290821.67,39055,22.25,73976.3,6.91,4.19,4.07,0,*76
1497290822.88,39056,22.25,73980.3,6.89,4.15,4.05,0,*72
1497290824.09,39057,22.25,73978.3,6.89,4.15,4.05,0,*73
1497290825.33,39058,22.25,73978.0,6.91,4.05,3.93,0,*7C
1497290826.56,39059,22.25,73972.8,6.89,4.05,4.01,0,*78
1497290827.77,39060,22.25,73974.8,6.91,4.07,4.07,0,*7F
1497290828.98,39061,22.25,73976.5,6.89,4.05,4.11,0,*72
1497290830.16,39062,22.25,73976.5,6.89,4.11,4.11,0,*74
1497290831.34,39063,22.25,73972.3,6.89,4.11,4.11,0,*75
1497290832.51,39064,22.25,73972.3,6.89,4.11,4.11,0,*72
1497290833.72,39065,22.25,73972.3,6.89,4.05,4.11,0,*76
1497290834.9,39066,22.25,73978.8,6.89,3.89,3.85,0,*7C
1497290836.11,39067,22.25,73980.0,6.89,3.89,4.01,0,*76
1497290837.28,39068,22.25,73978.0,6.89,4.11,4.11,0,*7E
1497290838.49,39069,22.25,73976.0,6.89,4.05,4.11,0,*7A
1497290839.67,39070,22.25,73978.5,6.89,4.11,4.11,0,*77
1497290840.85,39071,22.25,73978.0,6.89,4.11,4.15,0,*72
1497290842.03,39072,22.25,73976.5,6.89,4.11,4.15,0,*71
1497290843.23,39073,22.25,73978.8,6.87,4.07,4.19,0,*75
1497290844.44,39074,22.25,73982.5,6.87,4.19,4.23,0,*74
1497290845.64,39075,22.25,73984.3,6.87,4.11,4.23,0,*7D
1497290846.82,39076,22.25,73980.5,6.89,4.11,4.23,0,*70
1497290848.0,39077,22.25,73982.3,6.89,4.11,4.23,0,*71
1497290849.23,39078,22.25,73980.0,6.87,4.19,4.31,0,*7B
1497290850.46,39079,22.25,73980.0,6.87,4.19,4.31,0,*7A
1497290851.65,39080,22.25,73980.5,6.89,4.23,4.37,0,*7D
1497290852.86,39081,22.25,73984.0,6.87,4.23,4.33,0,*76
1497290854.04,39082,22.25,73980.8,6.89,4.33,4.37,0,*7E
1497290855.24,39083,22.25,73980.8,6.87,4.19,4.23,0,*7C
1497290856.48,39084,22.25,73982.3,6.87,4.23,4.31,0,*71
1497290857.66,39085,22.25,73980.5,6.89,4.33,4.37,0,*79
1497290858.87,39086,22.25,73980.5,6.87,4.33,4.41,0,*75
1497290860.07,39087,22.25,73982.3,6.87,4.41,4.53,0,*72
1497290861.28,39088,22.25,73978.8,6.87,4.45,4.45,0,*7E
1497290862.45,39089,22.25,73980.0,6.89,4.49,4.45,0,*7D
1497290863.66,39090,22.25,73982.5,6.87,4.33,4.33,0,*77
1497290864.87,39091,22.25,73982.5,6.91,4.41,4.37,0,*70
1497290866.05,39092,22.25,73980.5,6.89,4.27,4.15,0,*7A
1497290867.23,39093,22.25,73982.5,6.89,4.33,4.23,0,*7B
1497290868.46,39094,22.25,73982.0,6.87,4.31,4.23,0,*70
1497290869.69,39095,22.25,73980.5,6.87,4.31,4.19,0,*78
1497290870.87,39096,22.25,73982.8,6.89,4.27,4.15,0,*7E
1497290872.07,39097,22.25,73982.3,6.87,4.23,4.19,0,*79
1497290873.24,39098,22.25,73980.5,6.85,4.23,4.11,0,*7C
1497290874.45,39099,22.25,73982.3,6.87,4.33,4.23,0,*7F
1497290875.65,39100,22.25,73982.0,6.87,4.23,4.19,0,*76
1497290876.88,39101,22.25,73980.3,6.87,4.31,4.23,0,*7D
1497290878.08,39102,22.25,73980.0,6.87,4.23,4.11,0,*7C
1497290879.3,39103,22.25,73978.0,6.87,4.31,4.19,0,*76
1497290880.5,39104,22.25,73982.0,6.87,4.23,4.19,0,*72
1497290881.7,39105,22.25,73980.8,6.87,4.23,4.11,0,*7B
1497290882.93,39106,22.25,73976.5,6.87,4.31,4.11,0,*7B
1497290884.13,39107,22.25,73980.3,6.87,4.23,4.19,0,*71
1497290885.33,39108,22.25,73980.0,6.87,4.33,4.19,0,*7F
1497290886.5,39109,22.25,73982.0,6.89,4.33,4.19,0,*70
1497290887.68,39110,22.25,73984.5,6.89,4.37,4.27,0,*71
1497290888.86,39111,22.25,73978.3,6.85,4.41,4.23,0,*79
1497290890.04,39112,22.25,73978.8,6.85,4.33,4.23,0,*7F
1497290891.24,39113,22.25,73984.5,6.87,4.33,4.23,0,*7C
1497290892.47,39114,22.25,73984.8,6.87,4.31,4.11,0,*78
1497290893.65,39115,22.25,73986.8,6.89,4.27,4.23,0,*71
1497290894.85,39116,22.25,73982.3,6.85,4.33,4.31,0,*78
1497290896.03,39117,22.25,73984.8,6.85,4.23,4.23,0,*7B
1497290897.26,39118,22.25,73986.5,6.87,4.31,4.23,0,*75
1497290898.52,39119,22.25,73986.0,6.87,4.31,4.31,0,*77
1497290899.75,39120,22.25,73988.5,6.87,4.31,4.23,0,*7E
1497290900.95,39121,22.25,73984.0,6.87,4.23,4.23,0,*7C
1497290902.21,39122,22.25,73984.8,6.87,4.31,4.31,0,*7F
1497290903.41,39123,22.25,73990.0,6.87,4.23,4.19,0,*77
1497290904.59,39124,22.25,73986.0,6.85,4.11,4.11,0,*7B
1497290905.79,39125,22.25,73988.3,6.87,4.07,4.11,0,*7F
1497290906.97,39126,22.25,73984.0,6.85,4.07,4.11,0,*7E
1497290908.17,39127,22.25,73986.0,6.87,4.07,4.11,0,*7D
1497290909.34,39128,22.25,73984.0,6.85,4.07,4.19,0,*78
1497290910.52,39129,22.25,73984.0,6.85,4.07,4.11,0,*71
1497290911.72,39130,22.25,73982.3,6.85,4.01,4.07,0,*78
1497290912.92,39131,22.25,73982.5,6.85,3.89,4.01,0,*78
1497290914.13,39132,22.25,73984.3,6.85,3.89,3.97,0,*73
1497290915.35,39133,22.25,73980.8,6.85,3.97,4.01,0,*75
1497290916.53,39134,22.25,73980.5,6.85,4.07,4.07,0,*7A
1497290917.74,39135,22.25,73980.0,6.83,4.05,4.07,0,*7F
1497290918.95,39136,22.25,73982.3,6.83,4.05,4.07,0,*7C
1497290920.15,39137,22.25,73978.5,6.83,3.97,4.07,0,*71
1497290921.34,39138,22.25,73980.3,6.83,3.93,4.07,0,*7A
1497290922.52,39139,22.25,73978.0,6.83,3.93,4.07,0,*7B
1497290923.72,39140,22.25,73982.3,6.83,3.97,4.07,0,*71
1497290924.93,39141,22.25,73978.3,6.83,4.05,4.19,0,*73
1497290926.16,39142,22.25,73978.3,6.81,4.05,4.07,0,*7D